This is the latest recevied weather packets stored in our database for station/object IZ8XTV-13. If no packets are shown the sender has not sent any weather packets the latest 10 day(s).
| Time | Temp. | Humidity | Pressure | Rain* | Wind** | Luminosity | Snow |
|---|---|---|---|---|---|---|---|
| 1778273199 | 13.89° C | 99% | 1016.4 hPa | 0 mm | - | - | - |
| 1778272587 | 13.89° C | 99% | 1016.4 hPa | 0 mm | - | - | - |
| 1778271975 | 14.44° C | 99% | 1016.4 hPa | 0 mm | - | - | - |
| 1778271362 | 14.44° C | 99% | 1016.4 hPa | 0 mm | - | - | - |
| 1778270749 | 14.44° C | 99% | 1016.3 hPa | 0 mm | - | - | - |
| 1778270138 | 14.44° C | 99% | 1016.4 hPa | 0 mm | - | - | - |
| 1778269526 | 14.44° C | 99% | 1016.1 hPa | 0 mm | - | - | - |
| 1778268913 | 14.44° C | 99% | 1016 hPa | 0 mm | - | - | - |
| 1778268301 | 14.44° C | 99% | 1016 hPa | 0 mm | - | - | - |
| 1778267690 | 15° C | 99% | 1016 hPa | 0 mm | - | - | - |
| 1778267078 | 15° C | 99% | 1015.8 hPa | 0 mm | - | - | - |
| 1778266467 | 15° C | 99% | 1015.8 hPa | 0 mm | - | - | - |
| 1778265856 | 15° C | 99% | 1015.8 hPa | 0 mm | - | - | - |
| 1778265244 | 15° C | 99% | 1015.7 hPa | 0 mm | - | - | - |
| 1778264633 | 15° C | 99% | 1015.6 hPa | 0 mm | - | - | - |
| 1778264021 | 15° C | 99% | 1015.4 hPa | 0 mm | - | - | - |
| 1778263410 | 15° C | 99% | 1015.2 hPa | 0 mm | - | - | - |
| 1778262798 | 15.56° C | 99% | 1015.2 hPa | 0 mm | - | - | - |
| 1778262186 | 15.56° C | 99% | 1015.1 hPa | 0 mm | - | - | - |
| 1778261573 | 15.56° C | 99% | 1014.9 hPa | 0 mm | - | - | - |
| 1778260961 | 16.11° C | 99% | 1014.9 hPa | 0 mm | - | - | - |
| 1778260349 | 15.56° C | 99% | 1014.7 hPa | 0 mm | - | - | - |
| 1778259737 | 16.11° C | 99% | 1014.6 hPa | 0 mm | - | - | - |
| 1778259124 | 16.67° C | 99% | 1014.4 hPa | 0 mm | - | - | - |
| 1778258512 | 16.11° C | 99% | 1014.6 hPa | 0 mm | - | - | - |
* Rain latest hour (hover to see other rain measurements)
** Current wind speed in m/s (hover to see current wind gust speed)